Weather History for Mojave, CA

Change the Weather History Date:

Monday, March 4, 2013

  Actual Average Record
Temperature  
Mean Temperature 58 °F -  
Max Temperature 68 °F 61 °F 77 °F (1986)
Min Temperature 46 °F 38 °F 22 °F (1967)
Degree Days  
Heating Degree Days 7    
Growing Degree Days 8 (Base 50)    
Moisture  
Dew Point 32 °F    
Average Humidity 41    
Maximum Humidity 58    
Minimum Humidity 21    
Precipitation  
Precipitation 0.00 in - - ()
Sea Level Pressure  
Sea Level Pressure 30.04 in    
Wind  
Wind Speed 13 mph (West)    
Max Wind Speed 30 mph    
Max Gust Speed 44 mph    
Visibility 10 miles    
Events      
Averages and records for this station are not official NWS values.
T = Trace of Precipitation, MM = Missing Value Source: NWS Daily Summary

Daily Weather History Graph

Daily Weather History Graph

Search for Another Location

Airport:

Trip Planner

Search our weather history database for the weather conditions in past years. The results will help you decide how hot, cold, wet, or windy it might be!

Date:

Astronomy

Mar. 04, 2013 Rise Set
Actual Time 6:17 AM PST 5:51 PM PST
Civil Twilight 5:52 AM PST 6:16 PM PST
Nautical Twilight 5:23 AM PST 6:45 PM PST
Astronomical Twilight 4:53 AM PST 7:15 PM PST
Moon 12:22 AM PST (3/4) 10:46 AM PST (3/4)
Length of Visible Light 12h 24m
Length of Day
11h 33m
Waning Gibbous, 51% of the Moon is Illuminated
Mar 4
Waning Gibbous
Mar 4
Last Quarter
Mar 11
New
Mar 19
First Quarter
Mar 27
Full

Hourly Weather History & Observations

Time (PST) Temp. Windchill Dew Point Humidity Pressure Visibility Wind Dir Wind Speed Gust Speed Precip Events Conditions
12:15 AM 53.6 °F - 35.6 °F 51% 29.93 in 10.0 mi WNW 29.9 mph 43.7 mph N/A   Clear
12:35 AM 53.6 °F - 35.6 °F 51% 29.95 in 10.0 mi WNW 24.2 mph 41.4 mph N/A   Clear
12:55 AM 53.6 °F - 35.6 °F 51% 29.96 in 10.0 mi WNW 21.9 mph 34.5 mph N/A   Clear
1:15 AM 53.6 °F - 35.6 °F 51% 29.97 in 10.0 mi WNW 17.3 mph 34.5 mph N/A   Clear
1:35 AM 51.8 °F - 35.6 °F 54% 29.97 in 10.0 mi WNW 23.0 mph 33.4 mph N/A   Clear
1:55 AM 51.8 °F - 35.6 °F 54% 29.98 in 10.0 mi WNW 18.4 mph 34.5 mph N/A   Clear
2:15 AM 51.8 °F - 35.6 °F 54% 29.97 in 10.0 mi WNW 25.3 mph 38.0 mph N/A   Clear
2:35 AM 51.8 °F - 35.6 °F 54% 29.98 in 10.0 mi West 21.9 mph 28.8 mph N/A   Clear
2:55 AM 51.8 °F - 35.6 °F 54% 29.99 in 10.0 mi West 19.6 mph 31.1 mph N/A   Clear
3:15 AM 50.0 °F - 35.6 °F 58% 29.99 in 10.0 mi West 11.5 mph - N/A   Clear
3:35 AM 51.8 °F - 35.6 °F 54% 29.99 in 10.0 mi West 20.7 mph 25.3 mph N/A   Clear
4:15 AM 51.8 °F - 35.6 °F 54% 29.99 in 10.0 mi West 20.7 mph 27.6 mph N/A   Clear
4:35 AM 51.8 °F - 35.6 °F 54% 30.00 in 10.0 mi WNW 20.7 mph 26.5 mph N/A   Clear
4:55 AM 51.8 °F - 35.6 °F 54% 30.00 in 10.0 mi West 19.6 mph 33.4 mph N/A   Clear
5:15 AM 51.8 °F - 32.0 °F 47% 30.01 in 10.0 mi NW 19.6 mph - N/A   Clear
5:35 AM 50.0 °F - 32.0 °F 50% 30.02 in 10.0 mi WNW 11.5 mph - N/A   Clear
5:55 AM 50.0 °F - 32.0 °F 50% 30.02 in 10.0 mi WNW 10.4 mph 16.1 mph N/A   Clear
6:15 AM 50.0 °F - 33.8 °F 54% 30.02 in 10.0 mi West 9.2 mph 24.2 mph N/A   Clear
6:30 AM 51.8 °F - 32.0 °F 47% 30.02 in 10.0 mi NW 10.4 mph - N/A   Clear
6:55 AM 53.6 °F - 32.0 °F 44% 30.03 in 10.0 mi NW 8.1 mph - N/A   Clear
7:15 AM 53.6 °F - 32.0 °F 44% 30.04 in 10.0 mi WNW 9.2 mph - N/A   Clear
7:35 AM 55.4 °F - 32.0 °F 41% 30.05 in 10.0 mi WNW 12.7 mph - N/A   Clear
7:55 AM 55.4 °F - 32.0 °F 41% 30.07 in 7.0 mi WNW 11.5 mph - N/A   Clear
8:15 AM 55.4 °F - 33.8 °F 44% 30.07 in 10.0 mi WNW 11.5 mph 21.9 mph N/A   Clear
8:55 AM 57.2 °F - 32.0 °F 38% 30.08 in 10.0 mi Calm Calm - N/A   Clear
9:15 AM 59.0 °F - 32.0 °F 36% 30.08 in 10.0 mi East 4.6 mph - N/A   Clear
9:35 AM 59.0 °F - 32.0 °F 36% 30.07 in 10.0 mi SE 3.5 mph - N/A   Clear
9:55 AM 59.0 °F - 32.0 °F 36% 30.08 in 10.0 mi Calm Calm - N/A   Clear
10:15 AM 59.0 °F - 32.0 °F 36% 30.08 in 10.0 mi Calm Calm - N/A   Clear
10:55 AM 62.6 °F - 30.2 °F 30% 30.08 in 10.0 mi Calm Calm - N/A   Clear
11:15 AM 62.6 °F - 28.4 °F 27% 30.08 in 10.0 mi Calm Calm - N/A   Clear
11:35 AM 62.6 °F - 28.4 °F 27% 30.07 in 10.0 mi ENE 5.8 mph - N/A   Clear
11:55 AM 64.4 °F - 28.4 °F 26% 30.06 in 10.0 mi SE 5.8 mph - N/A   Clear
12:15 PM 64.4 °F - 28.4 °F 26% 30.05 in 10.0 mi Calm Calm - N/A   Clear
12:35 PM 64.4 °F - 28.4 °F 26% 30.05 in 10.0 mi SSW 3.5 mph - N/A   Clear
12:55 PM 66.2 °F - 28.4 °F 24% 30.05 in 10.0 mi Calm Calm - N/A   Clear
1:15 PM 64.4 °F - 28.4 °F 26% 30.04 in 10.0 mi Calm Calm - N/A   Clear
1:35 PM 66.2 °F - 28.4 °F 24% 30.03 in 10.0 mi Calm Calm - N/A   Clear
1:55 PM 66.2 °F - 28.4 °F 24% 30.03 in 10.0 mi SE 6.9 mph - N/A   Clear
2:15 PM 66.2 °F - 28.4 °F 24% 30.03 in 10.0 mi ESE 4.6 mph - N/A   Clear
2:35 PM 68.0 °F - 28.4 °F 23% 30.03 in 10.0 mi SSW 6.9 mph - N/A   Clear
2:55 PM 68.0 °F - 26.6 °F 21% 30.03 in 10.0 mi SSE 8.1 mph - N/A   Clear
3:15 PM 68.0 °F - 26.6 °F 21% 30.02 in 10.0 mi SSE 9.2 mph - N/A   Clear
3:35 PM 68.0 °F - 26.6 °F 21% 30.03 in 10.0 mi SSW 3.5 mph - N/A   Clear
3:55 PM 68.0 °F - 26.6 °F 21% 30.02 in 10.0 mi Calm Calm - N/A   Clear
4:15 PM 68.0 °F - 26.6 °F 21% 30.02 in 10.0 mi SSE 8.1 mph - N/A   Clear
4:35 PM 68.0 °F - 26.6 °F 21% 30.02 in 10.0 mi SSE 4.6 mph - N/A   Clear
4:55 PM 66.2 °F - 33.8 °F 30% 30.03 in 10.0 mi West 6.9 mph - N/A   Clear
5:10 PM 66.2 °F - 33.8 °F 30% 30.03 in 10.0 mi West 6.9 mph - N/A   Clear
5:35 PM 64.4 °F - 35.6 °F 34% 30.04 in 10.0 mi WNW 8.1 mph - N/A   Clear
5:55 PM 62.6 °F - 35.6 °F 37% 30.05 in 10.0 mi WNW 8.1 mph - N/A   Clear
6:35 PM 59.0 °F - 35.6 °F 42% 30.05 in 10.0 mi Calm Calm - N/A   Clear
6:55 PM 59.0 °F - 35.6 °F 42% 30.05 in 10.0 mi Calm Calm - N/A   Clear
7:15 PM 57.2 °F - 35.6 °F 44% 30.06 in 10.0 mi Calm Calm - N/A   Clear
7:35 PM 55.4 °F - 35.6 °F 47% 30.06 in 10.0 mi Calm Calm - N/A   Clear
7:55 PM 53.6 °F - 35.6 °F 51% 30.06 in 10.0 mi Calm Calm - N/A   Clear
8:15 PM 51.8 °F - 32.0 °F 47% 30.06 in 10.0 mi Calm Calm - N/A   Clear
8:35 PM 50.0 °F - 32.0 °F 50% 30.06 in 10.0 mi NNW 6.9 mph - N/A   Clear
8:55 PM 50.0 °F - 32.0 °F 50% 30.07 in 10.0 mi NW 6.9 mph - N/A   Clear
9:15 PM 50.0 °F - 30.2 °F 47% 30.08 in 10.0 mi NW 4.6 mph - N/A   Clear
9:35 PM 50.0 °F - 30.2 °F 47% 30.08 in 10.0 mi NW 6.9 mph - N/A   Clear
9:55 PM 50.0 °F - 30.2 °F 47% 30.07 in 10.0 mi NW 6.9 mph - N/A   Clear
10:35 PM 50.0 °F - 32.0 °F 50% 30.08 in 10.0 mi West 4.6 mph - N/A   Clear
10:55 PM 50.0 °F - 32.0 °F 50% 30.08 in 10.0 mi Calm Calm - N/A   Clear
11:15 PM 48.2 °F - 32.0 °F 54% 30.07 in 10.0 mi Calm Calm - N/A   Clear
11:35 PM 48.2 °F - 30.2 °F 50% 30.08 in 10.0 mi WNW 5.8 mph - N/A   Clear
11:55 PM 46.4 °F 43.5 °F 30.2 °F 53% 30.07 in 10.0 mi WNW 5.8 mph - N/A   Clear